Year,Month,Day,Hour,Minute,Value (Times are PST for temperature in C)
2015,02,24,09,30,5.20
2015,02,24,09,31,5.20
2015,02,24,09,32,5.30
2015,02,24,09,33,5.40
2015,02,24,09,34,5.40
2015,02,24,09,35,5.50
2015,02,24,09,36,5.60
2015,02,24,09,37,5.70
2015,02,24,09,38,5.80
2015,02,24,09,39,5.80
2015,02,24,09,40,5.90
2015,02,24,09,41,5.90
2015,02,24,09,42,5.90
2015,02,24,09,43,5.90
2015,02,24,09,44,6.00
2015,02,24,09,45,6.00
2015,02,24,09,46,6.10
2015,02,24,09,47,6.10
2015,02,24,09,48,6.10
2015,02,24,09,49,6.10
2015,02,24,09,50,6.10
2015,02,24,09,51,6.10
2015,02,24,09,52,6.10
2015,02,24,09,53,6.10
2015,02,24,09,54,6.00
2015,02,24,09,55,6.00
2015,02,24,09,56,6.00
2015,02,24,09,57,6.00
2015,02,24,09,58,6.00
2015,02,24,09,59,6.00
2015,02,24,10,00,5.90
2015,02,24,10,01,5.90
2015,02,24,10,02,5.90
2015,02,24,10,03,5.90
2015,02,24,10,04,5.90
2015,02,24,10,05,5.90
2015,02,24,10,06,5.90
2015,02,24,10,07,5.90
2015,02,24,10,08,5.90
2015,02,24,10,09,5.90
2015,02,24,10,10,5.90
2015,02,24,10,11,5.90
2015,02,24,10,12,6.00
2015,02,24,10,13,6.00
2015,02,24,10,14,6.00
2015,02,24,10,15,6.10
2015,02,24,10,16,6.10
2015,02,24,10,17,6.10
2015,02,24,10,18,6.10
2015,02,24,10,19,6.20
2015,02,24,10,20,6.20
2015,02,24,10,21,6.20
2015,02,24,10,22,6.20
2015,02,24,10,23,6.30
2015,02,24,10,24,6.30
2015,02,24,10,25,6.30
2015,02,24,10,26,6.30
2015,02,24,10,27,6.40
2015,02,24,10,28,6.40
2015,02,24,10,29,6.40
2015,02,24,10,30,6.50
2015,02,24,10,31,6.50
2015,02,24,10,32,6.50
2015,02,24,10,33,6.60
2015,02,24,10,34,6.60
2015,02,24,10,35,6.60
2015,02,24,10,36,6.60
2015,02,24,10,37,6.60
2015,02,24,10,38,6.70
2015,02,24,10,39,6.70
2015,02,24,10,40,6.70
2015,02,24,10,41,6.70
2015,02,24,10,42,6.70
2015,02,24,10,43,6.80
2015,02,24,10,44,6.80
2015,02,24,10,45,6.80
2015,02,24,10,46,6.80
2015,02,24,10,47,6.90
2015,02,24,10,48,6.90
2015,02,24,10,49,7.00
2015,02,24,10,50,7.00
2015,02,24,10,51,7.00
2015,02,24,10,52,7.10
2015,02,24,10,53,7.10
2015,02,24,10,54,7.20
2015,02,24,10,55,7.20
2015,02,24,10,56,7.20
2015,02,24,10,57,7.20
2015,02,24,10,58,7.30
2015,02,24,10,59,7.30
2015,02,24,11,00,7.30
2015,02,24,11,01,7.30
2015,02,24,11,02,7.30
2015,02,24,11,03,7.40
2015,02,24,11,04,7.40
2015,02,24,11,05,7.40
2015,02,24,11,06,7.40
2015,02,24,11,07,7.40
2015,02,24,11,08,7.50
2015,02,24,11,09,7.50
2015,02,24,11,10,7.60
2015,02,24,11,11,7.60
2015,02,24,11,12,7.60
2015,02,24,11,13,7.60
2015,02,24,11,14,7.60
2015,02,24,11,15,7.60
2015,02,24,11,16,7.70
2015,02,24,11,17,7.70
2015,02,24,11,18,7.70
2015,02,24,11,19,7.70
2015,02,24,11,20,7.80
2015,02,24,11,21,7.80
2015,02,24,11,22,7.80
2015,02,24,11,23,7.80
2015,02,24,11,24,7.90
2015,02,24,11,25,7.90
2015,02,24,11,26,7.90
2015,02,24,11,27,7.90
2015,02,24,11,28,8.00
2015,02,24,11,29,8.00
2015,02,24,11,30,8.00
2015,02,24,11,31,8.10
2015,02,24,11,32,8.10
2015,02,24,11,33,8.10
2015,02,24,11,34,8.10
2015,02,24,11,35,8.10
2015,02,24,11,36,8.20
2015,02,24,11,37,8.20
2015,02,24,11,38,8.20
2015,02,24,11,39,8.20
2015,02,24,11,40,8.30
2015,02,24,11,41,8.30
2015,02,24,11,42,8.30
2015,02,24,11,43,8.30
2015,02,24,11,44,8.40
2015,02,24,11,45,8.40
2015,02,24,11,46,8.40
2015,02,24,11,47,8.40
2015,02,24,11,48,8.40
2015,02,24,11,49,8.40
2015,02,24,11,50,8.50
2015,02,24,11,51,8.50
2015,02,24,11,52,8.50
2015,02,24,11,53,8.60
2015,02,24,11,54,8.60
2015,02,24,11,55,8.60
2015,02,24,11,56,8.60
2015,02,24,11,57,8.70
2015,02,24,11,58,8.70
2015,02,24,11,59,8.80
2015,02,24,12,00,8.80
2015,02,24,12,01,8.80
2015,02,24,12,02,8.80
2015,02,24,12,03,8.90
2015,02,24,12,04,8.90
2015,02,24,12,05,8.90
2015,02,24,12,06,9.00
2015,02,24,12,07,9.00
2015,02,24,12,08,9.10
2015,02,24,12,09,9.10
2015,02,24,12,10,9.20
2015,02,24,12,11,9.20
2015,02,24,12,12,9.20
2015,02,24,12,13,9.20
2015,02,24,12,14,9.30
2015,02,24,12,15,9.30
2015,02,24,12,16,9.30
2015,02,24,12,17,9.30
2015,02,24,12,18,9.30
2015,02,24,12,19,9.30
2015,02,24,12,20,9.30
2015,02,24,12,21,9.30
2015,02,24,12,22,9.30
2015,02,24,12,23,9.30
2015,02,24,12,24,9.30
2015,02,24,12,25,9.40
2015,02,24,12,26,9.40
2015,02,24,12,27,9.40
2015,02,24,12,28,9.40
2015,02,24,12,29,9.40
2015,02,24,12,30,9.40
2015,02,24,12,31,9.40
2015,02,24,12,32,9.40
2015,02,24,12,33,9.40
2015,02,24,12,34,9.40
2015,02,24,12,35,9.40
2015,02,24,12,36,9.40
2015,02,24,12,37,9.40
2015,02,24,12,38,9.40
2015,02,24,12,39,9.40
2015,02,24,12,40,9.50
2015,02,24,12,41,9.50
2015,02,24,12,42,9.50
2015,02,24,12,43,9.50
2015,02,24,12,44,9.50
2015,02,24,12,45,9.50
2015,02,24,12,46,9.50
2015,02,24,12,47,9.60
2015,02,24,12,48,9.60
2015,02,24,12,49,9.60
2015,02,24,12,50,9.60
2015,02,24,12,51,9.70
2015,02,24,12,52,9.70
2015,02,24,12,53,9.70
2015,02,24,12,54,9.80
2015,02,24,12,55,9.80
2015,02,24,12,56,9.90
2015,02,24,12,57,9.90
2015,02,24,12,58,10.00
2015,02,24,12,59,10.00
2015,02,24,13,00,10.10
2015,02,24,13,01,10.10
2015,02,24,13,02,10.10
2015,02,24,13,03,10.10
2015,02,24,13,04,10.20
2015,02,24,13,05,10.20
2015,02,24,13,06,10.20
2015,02,24,13,07,10.30
2015,02,24,13,08,10.30
2015,02,24,13,09,10.30
2015,02,24,13,10,10.30
2015,02,24,13,11,10.40
2015,02,24,13,12,10.40
2015,02,24,13,13,10.40
2015,02,24,13,14,10.50
2015,02,24,13,15,10.50
2015,02,24,13,16,10.50
2015,02,24,13,17,10.60
2015,02,24,13,18,10.60
2015,02,24,13,19,10.60
2015,02,24,13,20,10.60
2015,02,24,13,21,10.60
2015,02,24,13,22,10.70
2015,02,24,13,23,10.70
2015,02,24,13,24,10.70
2015,02,24,13,25,10.70
2015,02,24,13,26,10.70
2015,02,24,13,27,10.70
2015,02,24,13,28,10.70
2015,02,24,13,29,10.70
2015,02,24,13,30,10.70
2015,02,24,13,31,10.70
2015,02,24,13,32,10.70
2015,02,24,13,33,10.70
2015,02,24,13,34,10.70
2015,02,24,13,35,10.60
2015,02,24,13,36,10.60
2015,02,24,13,37,10.60
2015,02,24,13,38,10.60
2015,02,24,13,39,10.50
2015,02,24,13,40,10.50
2015,02,24,13,41,10.60
2015,02,24,13,42,10.60
2015,02,24,13,43,10.60
2015,02,24,13,44,10.70
2015,02,24,13,45,10.70
2015,02,24,13,46,10.70
2015,02,24,13,47,10.70
2015,02,24,13,48,10.80
2015,02,24,13,49,10.80
2015,02,24,13,50,10.80
2015,02,24,13,51,10.80
2015,02,24,13,52,10.70
2015,02,24,13,53,10.70
2015,02,24,13,54,10.70
2015,02,24,13,55,10.70
2015,02,24,13,56,10.60
2015,02,24,13,57,10.60
2015,02,24,13,58,10.60
2015,02,24,13,59,10.60
2015,02,24,14,00,10.50
2015,02,24,14,01,10.40
2015,02,24,14,02,10.40
2015,02,24,14,03,10.30
2015,02,24,14,04,10.20
2015,02,24,14,05,10.20
2015,02,24,14,06,10.20
2015,02,24,14,07,10.10
2015,02,24,14,08,10.10
2015,02,24,14,09,10.10
2015,02,24,14,10,10.10
2015,02,24,14,11,10.00
2015,02,24,14,12,10.00
2015,02,24,14,13,10.00
2015,02,24,14,14,10.00
2015,02,24,14,15,9.90
2015,02,24,14,16,10.00
2015,02,24,14,17,10.00
2015,02,24,14,18,10.00
2015,02,24,14,19,10.00
2015,02,24,14,20,10.00
2015,02,24,14,21,10.00
2015,02,24,14,22,10.00
2015,02,24,14,23,10.00
2015,02,24,14,24,10.00
2015,02,24,14,25,10.10
2015,02,24,14,26,10.10
2015,02,24,14,27,10.10
2015,02,24,14,28,10.10
2015,02,24,14,29,10.10
2015,02,24,14,30,10.10
2015,02,24,14,31,10.10
2015,02,24,14,32,10.10
2015,02,24,14,33,10.10
2015,02,24,14,34,10.10
2015,02,24,14,35,10.00
2015,02,24,14,36,10.00
2015,02,24,14,37,9.90
2015,02,24,14,38,9.90
2015,02,24,14,39,9.90
2015,02,24,14,40,9.90
2015,02,24,14,41,9.90
2015,02,24,14,42,9.80
2015,02,24,14,43,9.80
2015,02,24,14,44,9.80
2015,02,24,14,45,9.80
2015,02,24,14,46,9.80
2015,02,24,14,47,9.80
2015,02,24,14,48,9.80
2015,02,24,14,49,9.80
2015,02,24,14,50,9.90
2015,02,24,14,51,9.90
2015,02,24,14,52,9.90
2015,02,24,14,53,9.90
2015,02,24,14,54,9.90
2015,02,24,14,55,9.90
2015,02,24,14,56,9.90
2015,02,24,14,57,9.90
2015,02,24,14,58,9.90
2015,02,24,14,59,9.90
2015,02,24,15,00,9.80
2015,02,24,15,01,9.80
2015,02,24,15,02,9.80
2015,02,24,15,03,9.80
2015,02,24,15,04,9.80
2015,02,24,15,05,9.70
2015,02,24,15,06,9.70
2015,02,24,15,07,9.70
2015,02,24,15,08,9.70
2015,02,24,15,09,9.70
2015,02,24,15,10,9.80
2015,02,24,15,11,9.80
2015,02,24,15,12,9.80
2015,02,24,15,13,9.80
2015,02,24,15,14,9.80
2015,02,24,15,15,9.80
2015,02,24,15,16,9.80
2015,02,24,15,17,9.90
2015,02,24,15,18,9.90
2015,02,24,15,19,9.90
2015,02,24,15,20,9.90
2015,02,24,15,21,9.90
2015,02,24,15,22,10.00
2015,02,24,15,23,10.00
2015,02,24,15,24,10.00
2015,02,24,15,25,10.00
2015,02,24,15,26,10.00
2015,02,24,15,27,10.00
2015,02,24,15,28,9.90
2015,02,24,15,29,9.90
2015,02,24,15,30,9.90
2015,02,24,15,31,9.90
2015,02,24,15,32,9.90
2015,02,24,15,33,9.90
2015,02,24,15,34,9.90
2015,02,24,15,35,9.90
2015,02,24,15,36,9.90
2015,02,24,15,37,9.90
2015,02,24,15,38,9.90
2015,02,24,15,39,9.90
2015,02,24,15,40,9.90
2015,02,24,15,41,9.90
2015,02,24,15,42,9.90
2015,02,24,15,43,9.90
2015,02,24,15,44,9.90
2015,02,24,15,45,9.90
2015,02,24,15,46,9.90
2015,02,24,15,47,9.90
2015,02,24,15,48,9.90
2015,02,24,15,49,9.90
2015,02,24,15,50,9.90
2015,02,24,15,51,9.90
2015,02,24,15,52,9.90
2015,02,24,15,53,9.90
2015,02,24,15,54,9.90
2015,02,24,15,55,10.00
2015,02,24,15,56,10.00
2015,02,24,15,57,10.00
2015,02,24,15,58,10.00
2015,02,24,15,59,9.90
2015,02,24,16,00,9.90
2015,02,24,16,01,9.90
2015,02,24,16,02,9.90
2015,02,24,16,03,9.80
2015,02,24,16,04,9.80
2015,02,24,16,05,9.80
2015,02,24,16,06,9.70
2015,02,24,16,07,9.70
2015,02,24,16,08,9.60
2015,02,24,16,09,9.60
2015,02,24,16,10,9.60
2015,02,24,16,11,9.60
2015,02,24,16,12,9.50
2015,02,24,16,13,9.50
2015,02,24,16,14,9.40
2015,02,24,16,15,9.40
2015,02,24,16,16,9.30
2015,02,24,16,17,9.30
2015,02,24,16,18,9.30
2015,02,24,16,19,9.30
2015,02,24,16,20,9.30
2015,02,24,16,21,9.20
2015,02,24,16,22,9.20
2015,02,24,16,23,9.20
2015,02,24,16,24,9.20
2015,02,24,16,25,9.20
2015,02,24,16,26,9.20
2015,02,24,16,27,9.20
2015,02,24,16,28,9.20
2015,02,24,16,29,9.10
2015,02,24,16,30,9.10
2015,02,24,16,31,9.10
2015,02,24,16,32,9.10
2015,02,24,16,33,9.10
2015,02,24,16,34,9.10
2015,02,24,16,35,9.10
2015,02,24,16,36,9.10
2015,02,24,16,37,9.10
2015,02,24,16,38,9.10
2015,02,24,16,39,9.10
2015,02,24,16,40,9.00
2015,02,24,16,41,9.00
2015,02,24,16,42,9.00
2015,02,24,16,43,9.00
2015,02,24,16,44,9.00
2015,02,24,16,45,9.00
2015,02,24,16,46,9.00
2015,02,24,16,47,9.00
2015,02,24,16,48,9.00
2015,02,24,16,49,9.00
2015,02,24,16,50,8.90
2015,02,24,16,51,8.90
2015,02,24,16,52,8.90
2015,02,24,16,53,8.90
2015,02,24,16,54,8.90
2015,02,24,16,55,8.90
2015,02,24,16,56,8.90
2015,02,24,16,57,8.90
2015,02,24,16,58,8.90
2015,02,24,16,59,8.80
2015,02,24,17,00,8.80
2015,02,24,17,01,8.80
2015,02,24,17,02,8.80
2015,02,24,17,03,8.80
2015,02,24,17,04,8.80
2015,02,24,17,05,8.80
2015,02,24,17,06,8.80
2015,02,24,17,07,8.80
2015,02,24,17,08,8.80
2015,02,24,17,09,8.80
2015,02,24,17,10,8.80
2015,02,24,17,11,8.80
2015,02,24,17,12,8.80
2015,02,24,17,13,8.80
